[[{"header":{"parameterUnit":"m.s-1","parameterCategory":1,"la1":30.2991,"la2":30.254,"lo1":-89.0895,"lo2":-89.0444,"dy":0.0017,"dx":0.0017,"nx":28,"ny":28,"refTime":"2023-09-20T21:00:00:Z","depth":0,"parameterNumber":2,"parameterNumberName":"U-component_of_WINDS"},"data":[0,0,0,0,0,0,0,0,0,0,0,0,0,0,0,0,0,0,0,0,0,0,0,0,0,0,0,0,0,0,0,0,0,0,0,0,0,0,0,0,0,0,0,0,0,0,0,0,0,0,0,0,0,0,0,0,0,0,-5.5262,-5.5262,0,-5.5329,-5.5329,-5.533,-5.5236,-5.5233,-5.523,-5.5226,-5.5294,-5.5298,-5.5303,0,0,0,0,0,0,0,0,0,0,0,0,0,-5.5053,-5.5058,-5.5262,-5.5263,-5.5263,-5.5329,-5.533,-5.533,-5.5237,-5.5233,-5.5229,-5.5225,-5.5292,-5.5298,-5.5304,0,0,0,0,0,0,0,0,0,0,0,0,0,-5.5134,-5.5059,-5.5262,-5.5225,-5.5222,-5.5328,-5.533,-5.5331,-5.5238,-5.5233,-5.5228,-5.5223,-5.529,-5.5297,-5.5305,-5.545,0,0,-5.5327,-5.533,0,0,0,0,0,0,0,0,-5.513,-5.5142,-5.5229,-5.5227,-5.5225,-5.5269,-5.5281,-5.5371,-5.5239,-5.5232,-5.5226,-5.5221,-5.5289,-5.5297,-5.532,-5.5453,-5.5456,-5.5328,-5.5332,-5.5335,-5.5337,0,0,0,0,0,0,0,-5.5124,-5.5139,-5.5288,-5.5231,-5.5228,-5.5205,-5.5211,-5.5297,-5.5288,-5.5232,-5.5225,-5.5235,-5.5287,-5.5313,-5.5321,-5.5457,-5.5327,-5.5334,-5.5339,-5.5341,-5.5716,-5.5722,0,0,0,0,0,0,-5.5123,-5.5135,-5.5286,-5.529,-5.5164,-5.5213,-5.5219,-5.526,-5.5287,-5.5286,-5.5239,-5.523,-5.5303,-5.5312,-5.5323,-5.5497,-5.5335,-5.5342,-5.5346,-5.5711,-5.5718,-5.5724,0,0,0,0,0,0,-5.5119,-5.5138,-5.5283,-5.5211,-5.5227,-5.5222,-5.5268,-5.5264,-5.5289,-5.5292,-5.5289,-5.5267,-5.53,-5.5313,-5.542,-5.5498,-5.5345,-5.5352,-5.5704,-5.5713,-5.5721,-5.5846,0,0,0,0,0,0,-5.5114,-5.5137,-5.5192,-5.5213,-5.5232,-5.5379,-5.5272,-5.5269,-5.5303,-5.5292,-5.5318,-5.5317,-5.5297,-5.541,-5.5427,-5.5505,-5.5358,-5.5697,-5.5708,-5.5718,-5.5834,-5.5857,-5.5877,0,0,0,0,0,-5.5106,-5.5223,-5.5195,-5.5214,-5.53,-5.5384,-5.5395,-5.5369,-5.5309,-5.5365,-5.5367,-5.5316,-5.5487,-5.5421,-5.5441,-5.5522,-5.5692,-5.5705,-5.5717,-5.5825,-5.5853,-5.5876,0,0,0,0,0,0,-5.521,-5.5225,-5.5194,-5.5321,-5.5352,-5.5368,-5.5437,-5.5399,-5.5447,-5.5435,-5.54,-5.5407,-5.5523,-5.5533,-5.546,-5.5666,-5.558,-5.5597,-5.5655,-5.5681,-5.5702,-5.5697,-5.5364,0,0,0,0,0,-5.5248,-5.5315,-5.5324,-5.5435,-5.5453,-5.5443,-5.5478,-5.5456,-5.5486,-5.5499,-5.5508,-5.554,-5.5601,-5.5641,-5.5697,-5.5836,-5.5841,-5.5901,-5.5922,-5.594,-5.5955,-5.6031,-5.6059,-5.5765,-5.5765,-5.5764,0,0,-5.5326,-5.5342,-5.5386,-5.5456,-5.5478,-5.5549,-5.5454,-5.5532,-5.5584,-5.551,-5.5613,-5.5622,-5.5655,-5.5779,-5.5834,-5.5791,-5.6038,-5.5956,-5.5969,-5.5975,-5.6047,-5.6075,-5.61,-5.5773,-5.5772,-5.577,0,0,-5.5505,-5.5523,-5.5619,-5.5644,-5.5678,-5.5671,-5.5695,-5.5717,-5.5721,-5.5824,-5.5771,-5.5833,-5.5937,-5.5964,-5.5991,-5.6185,-5.6141,-5.6204,-5.6314,-5.6389,-5.6412,-5.6433,-5.6503,-5.6529,-5.6219,-5.6219,-5.622,0,-5.5597,-5.5701,-5.5673,-5.5756,-5.5789,-5.5728,-5.5825,-5.585,-5.5901,-5.5926,-5.5877,-5.601,-5.6027,-5.6158,-5.6206,-5.623,-5.6256,-5.6201,-5.6411,-5.6431,-5.645,-5.6517,-5.6544,-5.6227,-5.6226,-5.6225,-5.6225,0,-5.5815,-5.5888,-5.5962,-5.6014,-5.6056,-5.6146,-5.6132,-5.6177,-5.6153,-5.6151,-5.6258,-5.6278,-5.6338,-5.6368,-5.6343,-5.6497,-5.6469,-5.6417,-5.6329,-5.6486,-5.6549,-5.6574,-5.6238,-5.6235,-5.6233,-5.6231,0,0,-5.6058,-5.6097,-5.6124,-5.6149,-5.6184,-5.6241,-5.6329,-5.6389,-5.6429,-5.6467,-5.6541,-5.6633,-5.6586,-5.6617,-5.6596,-5.6662,-5.6817,-5.6601,-5.6602,-5.6642,-5.6989,-5.7029,-5.7059,-5.6788,-5.6793,-5.6797,-5.6987,0,-5.6238,-5.6391,-5.637,-5.6517,-5.6586,-5.653,-5.6607,-5.6637,-5.664,-5.6698,-5.67,-5.6767,-5.6698,-5.6717,-5.678,-5.6785,-5.6886,-5.677,-5.6857,-5.6861,-5.6851,-5.7091,-5.7133,-5.7311,-5.7011,-5.7015,-5.7018,0,-5.6468,-5.6517,-5.6671,-5.6699,-5.6727,-5.6796,-5.6851,-5.6908,-5.6943,-5.694,-5.6977,-5.6945,-5.7034,-5.6946,-5.7069,-5.6992,-5.7026,-5.7034,-5.704,-5.7048,-5.6949,-5.7106,-5.7367,-5.7395,-5.7056,-5.7053,-5.705,0,-5.6632,-5.6736,-5.6843,-5.6865,-5.69,-5.695,-5.6967,-5.6997,-5.7035,-5.7083,-5.7108,-5.7166,-5.7198,-5.7244,-5.7229,-5.7166,-5.7357,-5.7267,-5.7358,-5.7359,-5.74,-5.7398,-5.7672,-5.7422,-5.7421,-5.7421,-5.742,0,-5.6835,-5.6933,-5.6917,-5.6983,-5.7091,-5.7066,-5.7174,-5.7184,-5.7211,-5.7279,-5.7234,-5.7298,-5.7274,-5.7337,-5.7326,-5.7431,-5.7445,-5.7446,-5.7442,-5.7451,-5.7451,-5.7473,-5.746,-5.7428,-5.7426,-5.7425,-5.7424,0,-5.7037,-5.703,-5.7143,-5.7168,-5.7176,-5.7255,-5.7276,-5.7339,-5.7338,-5.7424,-5.7443,-5.7443,-5.7515,-5.7505,-5.7585,-5.7577,-5.7709,-5.769,-5.7698,-5.7694,-5.7786,-5.7778,-5.8084,-5.8123,-5.7848,-5.785,-5.7853,0,-5.7167,-5.7241,-5.7274,-5.7317,-5.7338,-5.7406,-5.7446,-5.7426,-5.7469,-5.7516,-5.7573,-5.7642,-5.7696,-5.7814,-5.7821,-5.7883,-5.7865,-5.7969,-5.7874,-5.7881,-5.7868,-5.7865,-5.7873,-5.7987,-5.799,-5.7993,-5.7995,0,-5.7399,-5.7394,-5.7453,-5.7513,-5.7562,-5.7608,-5.7649,-5.7687,-5.767,-5.7722,-5.7796,-5.7838,-5.7921,-5.7991,-5.805,-5.8067,-5.803,-5.8025,-5.8049,-5.8059,-5.8061,-5.8062,-5.775,-5.8017,-5.8015,-5.8013,-5.8012,-5.8011,-5.757,-5.7634,-5.7669,-5.7737,-5.7767,-5.7807,-5.7868,-5.7876,-5.7938,-5.8005,-5.7989,-5.8074,-5.8109,-5.8185,-5.8209,-5.8275,-5.8237,-5.8272,-5.8282,-5.8291,-5.8302,-5.8051,-5.8286,-5.8285,-5.8284,-5.8284,-5.8283,0,-5.7801,-5.7821,-5.7885,-5.7945,-5.8,-5.7961,-5.8005,-5.8054,-5.8129,-5.8166,-5.822,-5.8307,-5.8375,-5.8389,-5.8454,-5.8505,-5.849,-5.8523,-5.8519,-5.8524,-5.8332,-5.8305,-5.8535,-5.8535,-5.8535,-5.8535,-5.8535,-5.8534,-5.7928,-5.8035,-5.8034,-5.8156,-5.8175,-5.8259,-5.8288,-5.8326,-5.8355,-5.8455,-5.8511,-5.852,-5.8549,-5.8616,-5.8677,-5.868,-5.8706,-5.8747,-5.8743,-5.8563,-5.8537,-5.8513,-5.8488,-5.8753,-5.8753,-5.893,-5.8931,-5.8933]},{"header":{"parameterUnit":"m.s-1","parameterCategory":1,"la1":30.2991,"la2":30.254,"lo1":-89.0895,"lo2":-89.0444,"dy":0.0017,"dx":0.0017,"nx":28,"ny":28,"refTime":"2023-09-20T21:00:00:Z","depth":0,"parameterNumber":3,"parameterNumberName":"V-component_of_WINDS"},"data":[0,0,0,0,0,0,0,0,0,0,0,0,0,0,0,0,0,0,0,0,0,0,0,0,0,0,0,0,0,0,0,0,0,0,0,0,0,0,0,0,0,0,0,0,0,0,0,0,0,0,0,0,0,0,0,0,0,0,-1.5906,-1.5906,0,-1.5955,-1.5956,-1.5956,-1.5955,-1.5954,-1.5953,-1.5953,-1.6004,-1.6006,-1.6008,0,0,0,0,0,0,0,0,0,0,0,0,0,-1.5809,-1.5811,-1.5906,-1.5906,-1.5907,-1.5955,-1.5956,-1.5957,-1.5955,-1.5954,-1.5953,-1.5952,-1.6004,-1.6006,-1.6009,0,0,0,0,0,0,0,0,0,0,0,0,0,-1.5854,-1.5811,-1.5906,-1.5912,-1.5913,-1.5955,-1.5956,-1.5957,-1.5955,-1.5954,-1.5953,-1.5952,-1.6003,-1.6006,-1.6009,-1.6049,0,0,-1.6018,-1.602,0,0,0,0,0,0,0,0,-1.5851,-1.5858,-1.591,-1.5911,-1.5913,-1.5948,-1.5941,-1.5988,-1.5955,-1.5939,-1.5953,-1.5951,-1.5986,-1.5991,-1.6002,-1.6051,-1.6053,-1.6018,-1.602,-1.6022,-1.6022,0,0,0,0,0,0,0,-1.5848,-1.5855,-1.5925,-1.5911,-1.5913,-1.5912,-1.5917,-1.595,-1.5968,-1.594,-1.594,-1.5946,-1.5987,-1.5999,-1.6004,-1.6054,-1.6018,-1.6021,-1.6023,-1.6024,-1.6135,-1.6136,0,0,0,0,0,0,-1.5844,-1.5853,-1.5924,-1.5927,-1.5879,-1.5915,-1.592,-1.5938,-1.5968,-1.5971,-1.5947,-1.5946,-1.5995,-1.6,-1.6005,-1.6052,-1.6022,-1.6024,-1.6026,-1.6134,-1.6135,-1.6137,0,0,0,0,0,0,-1.5842,-1.585,-1.5922,-1.589,-1.5899,-1.5917,-1.5937,-1.5939,-1.5952,-1.5973,-1.5976,-1.5956,-1.5994,-1.6001,-1.6037,-1.6054,-1.6026,-1.6029,-1.6133,-1.6134,-1.6136,-1.6148,0,0,0,0,0,0,-1.5839,-1.5849,-1.5865,-1.589,-1.5901,-1.5953,-1.5938,-1.5941,-1.5957,-1.5956,-1.5982,-1.5986,-1.5994,-1.6033,-1.604,-1.6058,-1.6031,-1.6131,-1.6133,-1.6135,-1.6146,-1.6149,-1.6153,0,0,0,0,0,-1.5835,-1.5867,-1.5866,-1.5874,-1.592,-1.5954,-1.596,-1.5968,-1.5958,-1.5974,-1.5987,-1.5985,-1.6051,-1.6036,-1.6045,-1.6064,-1.613,-1.6133,-1.6135,-1.6144,-1.6149,-1.6153,0,0,0,0,0,0,-1.5845,-1.5871,-1.587,-1.591,-1.593,-1.5954,-1.5974,-1.5973,-1.5997,-1.5995,-1.6004,-1.601,-1.6046,-1.6059,-1.6042,-1.6102,-1.6089,-1.6094,-1.6093,-1.6098,-1.6101,-1.6097,-1.6034,0,0,0,0,0,-1.5851,-1.5876,-1.5898,-1.5931,-1.5941,-1.5956,-1.5971,-1.5975,-1.5996,-1.6005,-1.602,-1.6041,-1.6066,-1.6082,-1.6107,-1.6147,-1.6152,-1.6164,-1.6168,-1.617,-1.6174,-1.6194,-1.62,-1.6145,-1.6145,-1.6145,0,0,-1.5865,-1.5882,-1.5898,-1.5933,-1.5949,-1.5974,-1.5963,-1.5991,-1.6009,-1.6009,-1.6043,-1.6056,-1.6079,-1.6117,-1.6134,-1.6128,-1.619,-1.6174,-1.6176,-1.6178,-1.6198,-1.6203,-1.6207,-1.6147,-1.6146,-1.6146,0,0,-1.5904,-1.592,-1.5949,-1.5964,-1.5988,-1.5997,-1.6003,-1.6027,-1.6035,-1.6069,-1.6069,-1.6091,-1.6135,-1.6151,-1.6165,-1.6207,-1.6205,-1.6214,-1.6232,-1.6252,-1.6256,-1.626,-1.6274,-1.6279,-1.6218,-1.6218,-1.6218,0,-1.5919,-1.5957,-1.5964,-1.5991,-1.6006,-1.6006,-1.6034,-1.6049,-1.608,-1.609,-1.6083,-1.6136,-1.6152,-1.6192,-1.6202,-1.6214,-1.6221,-1.6212,-1.6255,-1.6259,-1.6263,-1.6276,-1.6281,-1.6219,-1.6219,-1.6219,-1.6218,0,-1.5973,-1.5999,-1.602,-1.6048,-1.6065,-1.6093,-1.6104,-1.6121,-1.6123,-1.6132,-1.6167,-1.6185,-1.6213,-1.6223,-1.6226,-1.6263,-1.6258,-1.6253,-1.624,-1.6269,-1.6281,-1.6286,-1.622,-1.622,-1.6219,-1.6219,0,0,-1.602,-1.605,-1.6057,-1.6069,-1.6094,-1.6114,-1.6142,-1.6167,-1.6181,-1.6201,-1.6224,-1.626,-1.6254,-1.627,-1.6274,-1.6292,-1.6322,-1.6284,-1.6284,-1.6289,-1.6362,-1.6366,-1.6372,-1.6321,-1.6322,-1.6323,-1.636,0,-1.6061,-1.6109,-1.6115,-1.6157,-1.6181,-1.6179,-1.6203,-1.622,-1.6229,-1.625,-1.6261,-1.6285,-1.6277,-1.6286,-1.6303,-1.6314,-1.6336,-1.6312,-1.6341,-1.6342,-1.6335,-1.6379,-1.6383,-1.6418,-1.6365,-1.6366,-1.6367,0,-1.6115,-1.6135,-1.618,-1.6199,-1.6209,-1.623,-1.6253,-1.6274,-1.6293,-1.6298,-1.6314,-1.6316,-1.6343,-1.6328,-1.6366,-1.6349,-1.6361,-1.6368,-1.637,-1.6373,-1.6356,-1.6382,-1.6429,-1.6434,-1.6375,-1.6374,-1.6374,0,-1.6143,-1.6182,-1.6213,-1.6223,-1.6247,-1.6262,-1.6272,-1.629,-1.6305,-1.6325,-1.6334,-1.6357,-1.637,-1.6388,-1.6395,-1.6384,-1.6431,-1.6418,-1.6436,-1.6436,-1.6446,-1.6446,-1.6495,-1.6455,-1.6455,-1.6455,-1.6455,0,-1.6188,-1.6215,-1.6226,-1.6245,-1.6275,-1.6281,-1.631,-1.632,-1.6336,-1.6356,-1.6357,-1.6376,-1.6385,-1.6406,-1.6412,-1.6441,-1.6447,-1.6451,-1.6453,-1.6451,-1.645,-1.6459,-1.6457,-1.6456,-1.6456,-1.6456,-1.6455,0,-1.6225,-1.6234,-1.6267,-1.6286,-1.6291,-1.6312,-1.6328,-1.6346,-1.6354,-1.638,-1.6387,-1.64,-1.6423,-1.6433,-1.6462,-1.6466,-1.6499,-1.6499,-1.6493,-1.6493,-1.651,-1.6508,-1.6567,-1.6575,-1.653,-1.653,-1.6531,0,-1.6252,-1.6273,-1.6293,-1.6307,-1.6317,-1.6339,-1.6353,-1.636,-1.6374,-1.6396,-1.6411,-1.6435,-1.6454,-1.6492,-1.6504,-1.6526,-1.6526,-1.6545,-1.6529,-1.6526,-1.6525,-1.6523,-1.6525,-1.6548,-1.6548,-1.6549,-1.6549,0,-1.63,-1.6303,-1.6323,-1.6344,-1.636,-1.6378,-1.6394,-1.6405,-1.6414,-1.643,-1.6454,-1.6469,-1.6498,-1.6521,-1.6543,-1.6554,-1.6553,-1.6554,-1.6559,-1.6557,-1.6552,-1.6554,-1.65,-1.6552,-1.6552,-1.6552,-1.6552,-1.6552,-1.6333,-1.635,-1.6366,-1.6388,-1.6401,-1.6416,-1.6433,-1.6443,-1.6463,-1.6486,-1.6489,-1.6514,-1.6531,-1.656,-1.6571,-1.6591,-1.6586,-1.6594,-1.6596,-1.6597,-1.6598,-1.6549,-1.6595,-1.6595,-1.6595,-1.6595,-1.6595,0,-1.6379,-1.6389,-1.6409,-1.6431,-1.6448,-1.6445,-1.6462,-1.6477,-1.6499,-1.6514,-1.6532,-1.6559,-1.6581,-1.6593,-1.6615,-1.6628,-1.6628,-1.6633,-1.6632,-1.6634,-1.6602,-1.6595,-1.6633,-1.6633,-1.6633,-1.6633,-1.6633,-1.6633,-1.6405,-1.6434,-1.6438,-1.6472,-1.6482,-1.6506,-1.6517,-1.653,-1.6542,-1.6571,-1.6589,-1.6597,-1.6611,-1.6633,-1.6652,-1.6656,-1.6663,-1.6669,-1.6672,-1.6641,-1.6637,-1.6633,-1.6627,-1.6671,-1.6671,-1.6702,-1.6703,-1.6703]}]]